Regional Weather Roundup
Issued by NWS

Home | Current Version | Previous Version | Graphics & Text | Print | Product List | Glossary On
Versions: 1 2 3 4 5 6 7 8 9 10 11 12 13 14 15 16 17 18 19 20 21 22 23 24 25 26 27 28 29 30 31 32 33 34 35 36 37 38 39 40 41 42 43 44 45 46 47 48 49 50
000
ASUS45 KABQ 280310
RWRNM
WEATHER ROUNDUP FOR NEW MEXICO
NATIONAL WEATHER SERVICE ALBUQUERQUE NM
900 PM MDT WED AUG 27 2014

NOTE: "FAIR" MEANS FEW OR NO CLOUDS BELOW 12,000 FEET AGL WITH NO
       SIGNIFICANT WEATHER OR OBSTRUCTIONS TO VISION.

      THIS PRODUCT IS RELEASED AS TWO VERSIONS.  ONE VERSION NEAR
      THE TOP OF THE HOUR CONTAINING PRELIMINARY DATA FROM ALBUQUERQUE
      AND OTHER STATIONS.  A FINAL VERSION WITH ADDITIONAL DATA IS
      ISSUED ABOUT 10 MINUTES AFTER THE HOUR.

NMZ501-503-504-510>518-280400-
NORTHWEST PLATEAU/NORTHCENTRAL MOUNTAINS

CITY           SKY/WX    TMP DP  RH WIND       PRES   REMARKS
FARMINGTON     PTCLDY    60  46  59 NE5       30.25R
LOS ALAMOS     CLEAR     64  35  34 W7        30.35R
SANTA FE       CLEAR     59  46  62 NW7       30.27R
ANGEL FIRE     FAIR      52  38  59 CALM      30.38R

$$
NMZ402-403-502-505>509-280400-
WESTCENTRAL MOUNTAINS/SOUTHWEST MOUNTAINS

CITY           SKY/WX    TMP DP  RH WIND       PRES   REMARKS
GALLUP         PTCLDY    63  41  44 W6        30.32R
SILVER CITY    PTCLDY    73  54  49 SE6       30.26R

$$
NMZ407-409-411-412-280400-
SOUTHERN DESERTS

CITY           SKY/WX    TMP DP  RH WIND       PRES   REMARKS
LORDSBURG      FAIR      79  50  36 W8        30.15R
DEMING         MOCLDY    74  59  59 NE6       30.16R
LAS CRUCES     PTCLDY    72  60  65 NW3       30.17R
HOLLOMAN AFB   MOCLDY    75  61  62 CALM      30.13R
ALAMOGORDO     MOCLDY    73  63  68 SW3       30.15R
T OR C         CLOUDY    73  59  61 SW7       30.21R

$$
NMZ519>523-280400-
CENTRAL VALLEYS/CENTRAL HIGHLANDS

CITY           SKY/WX    TMP DP  RH WIND       PRES   REMARKS
ALBUQUERQUE    PTCLDY    75  50  41 S5        30.22R
DOUBLE EAGLE   MOCLDY    66  54  63 S5        30.27R
MORIARTY ARPT  FAIR      61  52  71 NW3       30.29R
CLINES CORNERS CLEAR     59  49  69 W9        30.32R
BELEN          FAIR      68  56  66 CALM      30.21R
SOCORRO        FAIR      72  63  73 CALM      30.20R

$$
NMZ524>526-539-540-280400-
SOUTHCENTRAL MOUNTAINS

CITY           SKY/WX    TMP DP  RH WIND       PRES   REMARKS
RUIDOSO        MOCLDY    63  57  82 S8        30.35R

$$
NMZ527>531-280400-
NORTHEAST HIGHLANDS/NORTHEAST PLAINS

CITY           SKY/WX    TMP DP  RH WIND       PRES   REMARKS
LAS VEGAS      CLEAR     60  46  59 SW10      30.29R
RATON          MOCLDY    71  38  29 W17G24    30.17S
CLAYTON        PTCLDY    68  56  65 S9        30.10R

$$
NMZ532>537-280400-
EASTCENTRAL PLAINS

CITY           SKY/WX    TMP DP  RH WIND       PRES   REMARKS
TUCUMCARI      CLEAR     77  57  50 SW9       30.08R
CANNON AFB     CLEAR     74  57  55 S7        30.14R
CLOVIS AIRPORT   N/A     73  54  49 SW8       30.16R

$$
NMZ028-029-538-280400-
SOUTHEAST PLAINS

CITY           SKY/WX    TMP DP  RH WIND       PRES   REMARKS
ROSWELL        PTCLDY    76  60  57 S7        30.09R
CARLSBAD       PTCLDY    78  62  57 W3        30.06S
HOBBS          CLOUDY    79  59  50 N5        30.11R


$$


USA.gov is the U.S. government's official web portal to all federal, state and local government web resources and services.